CAPE
3 5 6 46 10 3 47 104 69 29 9 4 0 0 0 0 0 0 0 0 0 0 0 0 0 0 0 0 3454 3067 2946 2756 2352 2164 2175 2201 1399 1480 903 1372 1189 972 805 636
15 20 32 22 26 24 48 33 21 26 10 42 16 7 3 0 0 0 0 0 0 0 0 0 0 0 0 0 3109 2811 2444 2531 2454 2410 2320 2166 1314 1422 1152 1539 1574 1210 1150 1098
8 6 12 12 20 35 36 20 61 20 46 32 37 18 48 13 0 0 0 0 0 0 0 0 0 0 0 0 1884 2986 2866 2564 2546 2379 2248 2065 1598 1430 1750 1586 1520 1511 1307 1128
9 7 10 22 34 30 25 50 35 28 52 9 126 6 32 27 9 0 0 0 0 0 0 0 0 0 0 0 2548 3230 3172 2729 2670 2272 1819 1869 1809 1499 1859 1537 1479 1339 1671 1089
0 9 14 13 24 45 22 36 38 30 52 80 27 122 1 43 26 0 0 0 0 0 0 0 0 0 0 1691 3148 2991 3050 2627 2501 1950 1833 1742 1713 1784 1667 2200 2032 1168 720 393
1 0 7 1 7 21 38 41 41 36 49 18 83 72 0 10 7 6 0 0 0 0 0 0 0 0 0 3033 3236 3420 3051 2558 2489 1964 1579 1794 1804 2260 2232 2153 1514 757 261 105
14 6 14 6 9 7 26 22 4 15 17 0 87 32 1 4 0 0 1 1 0 0 0 0 0 0 60 3192 3109 3027 3028 2363 1967 1557 1458 1642 1553 1611 1919 1654 1234 523 243 237
11 0 10 0 5 24 20 14 16 5 12 4 0 2 0 8 15 0 0 0 2 0 0 0 0 0 2138 3278 3018 2560 2859 2262 1604 1873 1959 2015 1775 2156 1477 1881 980 400 260 27
3 0 0 0 0 0 19 4 40 20 6 43 57 3 48 65 46 5 0 3 3 0 0 0 0 0 2572 3321 2775 2687 2564 2170 1907 2494 2538 2085 1390 1842 1506 581 396 167 6 0
12 2 0 0 0 0 1 2 5 46 1 1 18 25 7 48 16 0 0 0 0 0 0 0 0 4 2764 2811 2666 2511 2261 2089 2354 2293 1934 1292 1133 752 399 154 15 3 0 0
7 0 0 0 0 0 0 14 12 30 23 5 23 3 124 86 11 66 0 0 24 2 0 0 0 503 2976 2905 2364 2109 2017 2221 2256 1700 1233 721 383 208 81 3 0 0 0 0
4 3 0 0 0 0 1 12 47 20 20 24 45 95 4 166 165 27 0 0 8 0 0 0 85 2764 2477 2240 1990 1850 1791 1964 1755 1447 795 374 133 65 9 0 0 0 0 0
0 0 0 0 3 0 4 9 16 30 35 4 17 24 30 23 137 60 1 6 1 45 23 13 1973 2357 1070 1528 1696 1716 1589 1516 1367 933 350 67 22 0 1 1 0 0 0 0
4 0 1 0 0 1 1 0 8 3 15 31 42 0 17 0 21 19 0 21 8 0 145 1710 637 225 110 119 1061 1043 799 527 363 105 5 21 0 1 2 0 0 0 0 0
0 0 1 3 8 8 5 2 0 3 5 17 1 0 1 3 0 0 0 4 44 48 1407 1605 461 0 0 86 6 13 11 23 0 0 0 0 1 3 0 0 0 0 0 0
1 0 4 1 0 0 0 3 3 1 2 5 13 7 0 19 0 0 0 25 81 497 1200 1073 803 197 75 204 50 3 3 3 0 0 0 0 1 0 0 0 0 0 0 0
0 1 0 0 2 9 0 2 11 11 16 38 8 18 46 110 5 9 1 0 188 827 706 710 280 123 88 8 5 3 2 0 0 0 1 0 0 0 0 0 0 0 0 0
0 0 1 0 0 1 0 0 9 45 123 105 152 152 38 30 2 18 5 0 0 383 258 211 110 3 2 1 1 0 0 0 0 0 0 0 0 0 0 0 0 0 1 0
0 0 0 0 0 0 1 0 3 3 3 22 28 14 5 0 3 12 15 264 295 80 2 23 9 3 1 0 0 0 0 0 0 0 0 0 0 0 0 0 0 0 1 0
0 0 1 0 21 1 0 1 1 0 0 1 1 0 13 0 6 0 1 1 1 2 2 3 2 2 0 0 0 0 0 0 0 0 0 0 0 0 0 0 0 0 0 0
0 1 0 1 14 1 3 3 0 0 0 0 1 8 7 0 0 0 1 2 2 2 2 2 1 1 1 1 0 0 0 0 0 0 0 0 0 0 0 0 0 0 0 0
0 0 2 0 0 0 0 0 0 2 0 1 4 3 3 2 0 1 1 2 2 2 1 0 0 0 0 0 0 0 0 0 0 0 0 0 0 0 0 0 0 0 0 0
0 0 0 1 0 1 2 1 2 2 6 6 1 2 3 1 0 1 1 2 2 2 0 0 0 0 0 0 0 0 0 0 0 0 0 0 0 0 0 0 0 0 0 0
1 1 1 0 1 1 2 2 0 4 3 4 2 2 3 1 1 1 1 1 1 1 0 0 0 0 0 0 0 0 0 0 0 0 0 0 0 0 0 0 0 0 0 0
0 0 0 0 1 1 4 2 1 1 2 2 2 2 3 2 2 2 1 1 1 1 0 0 0 0 0 0 0 1 0 0 0 0 0 0 0 0 0 0 0 0 0 0
0 0 0 0 0 1 2 1 1 0 0 2 1 2 2 0 1 2 1 1 0 0 0 0 1 1 1 1 1 0 0 0 0 0 0 0 0 0 0 0 0 0 0 0
CIN
-3 -11 -21 -2 -7 -42 -20 -5 -7 -5 -29 -58 0 0 0 0 0 0 0 0 0 0 0 0 0 0 0 0 -34 -18 -31 -61 -29 -15 -7 -2 -47 -21 -70 -23 -73 -106 -122 -148
-7 -5 -8 -15 -12 -17 -15 -25 -29 -19 -21 -12 -14 -7 -1 0 0 -2 0 0 0 0 0 0 0 0 0 0 -22 -63 -15 -49 -34 -19 -6 -1 -46 -13 -24 -51 -55 -79 -74 -78
-5 -4 -9 -8 -8 -15 -19 -29 -18 -25 -12 -23 -21 -17 -8 -45 -7 0 -1 0 0 0 0 0 0 0 0 0 -29 -45 -63 -36 -40 -14 -7 -4 -7 -4 -15 -46 -58 -52 -77 -85
-4 -4 -5 -3 -3 -5 -9 -17 -10 -5 -12 -25 -4 -7 -18 -12 -6 0 0 0 0 0 0 0 0 0 0 0 -26 -30 -37 -37 -42 -15 -7 -3 -1 -22 -35 -44 -41 -7 -10 -134
0 -4 -2 -4 -4 -3 -5 -5 -4 -5 -13 -3 -34 -2 -2 -4 -6 0 0 0 0 0 0 0 0 0 0 -23 -35 -44 -52 -91 -31 -34 -8 -6 -3 -12 -40 -11 -5 -105 -198 -251
-3 0 -4 -2 -5 -6 -6 -12 -3 -3 -11 -2 -106 -4 0 -14 -19 -8 0 0 0 0 0 0 0 0 0 -24 -33 -21 -25 -42 -16 -26 -58 -6 -8 -11 -16 -4 -74 -195 -308 -306
-3 -3 -6 -7 -4 -2 -6 -13 -2 -1 -2 0 -23 -44 -5 -14 -14 0 -3 -12 0 0 0 0 0 0 -1 -9 -28 -21 -2 -24 -18 -51 -92 -111 -91 -18 -56 -92 -118 -271 -262 -203
-1 0 -3 0 -6 -3 -6 -12 -2 -1 -6 -11 -56 -5 0 -24 -16 -7 -8 -2 -2 0 0 0 0 0 -12 -10 -45 -54 0 -5 -20 -8 -31 -31 -49 -13 -112 -23 -170 -273 -214 -340
-1 0 -1 0 0 0 -17 -18 -10 -10 -11 -3 -26 -32 -12 -24 -8 -35 0 -6 -3 0 0 0 0 0 -12 -23 -41 -38 0 -14 -9 -1 -12 -18 -21 -14 -71 -189 -264 -287 -232 0
0 0 0 0 0 0 -2 -1 -8 -2 -1 -1 -13 -16 -62 -19 -10 0 0 0 -9 -1 0 0 0 -3 -32 -69 -54 -3 -3 -16 -1 -10 -18 -12 -53 -144 -205 -347 -382 -297 0 0
0 0 0 0 0 0 -3 -4 -8 -2 -1 -4 -3 -20 -6 -37 -42 -22 0 0 -17 -1 0 0 0 -5 -74 -68 -70 -2 -13 -1 -1 -13 -2 -151 -246 -237 -365 -256 0 0 0 0
0 -1 0 0 0 0 -5 -1 -1 -1 -6 -5 -8 -12 -118 -31 -10 -16 0 0 -27 0 0 0 -2 -44 -82 -59 -35 -2 -2 -1 -1 -1 -161 -242 -398 -568 -392 0 0 0 0 0
0 0 0 0 -2 0 -5 -4 -3 -2 -1 -5 -1 -13 -47 -52 -48 -67 0 -51 -42 -21 -5 -3 -31 -68 -101 -81 -58 -3 -3 -2 -2 -62 -236 -341 -630 0 0 0 0 0 0 0
-2 0 0 0 0 -1 -2 0 -9 -9 -1 -17 -7 -3 -64 -21 -142 -151 -3 -70 -62 -18 -7 -77 -187 -207 -200 -138 -4 -9 -34 -93 -206 -349 -136 -514 0 -1 0 0 0 0 0 0
0 0 0 0 0 -1 0 -1 -1 -1 -3 -2 -3 0 -27 -22 -71 0 0 -170 -185 -64 -11 -109 -180 0 0 -23 -14 -68 -79 -140 -16 0 0 0 -1 0 0 0 0 0 0 0
0 0 0 0 0 -2 0 -1 -1 -1 -2 -19 -2 -11 0 -12 -1 0 0 -217 -166 -28 -65 -143 -109 -275 -313 -71 -170 0 0 -2 0 0 0 0 0 0 0 0 0 0 0 0
0 0 0 0 -2 -2 0 -1 -1 -5 -25 -28 -8 -2 -69 -46 -54 -49 -87 0 -108 -64 -80 -127 -162 -242 -317 -223 -100 0 0 0 0 0 0 0 0 0 0 0 0 0 0 0
0 0 0 0 -1 0 0 -1 -3 -9 -2 -12 -8 -38 -25 -96 -95 -369 -160 0 0 -172 -147 -222 -300 -27 0 0 0 0 0 0 0 0 0 0 0 0 0 0 0 0 -1 0
0 0 0 0 0 0 -1 0 0 0 -3 -17 -19 -29 -30 0 -134 -214 -3 -22 -9 -219 -6 -362 -196 0 0 0 0 0 0 0 0 0 0 0 0 0 0 0 0 0 -2 0
0 0 0 0 -3 0 0 0 0 -1 0 0 0 -2 -2 -3 -136 0 0 0 0 0 0 -238 0 0 0 0 0 0 0 0 0 0 0 0 0 0 0 0 0 0 0 0
0 0 0 0 -3 0 0 0 -2 0 0 0 0 -7 -33 0 0 0 0 0 0 0 0 0 0 0 -3 -4 0 0 0 0 0 0 0 0 0 0 0 0 0 0 0 0
0 0 0 0 0 0 0 0 0 0 0 0 0 0 0 0 0 0 0 0 0 0 0 0 0 0 -2 0 0 0 0 0 0 0 0 0 0 0 0 0 0 0 0 0
0 0 0 0 0 0 0 0 0 0 0 0 0 0 0 0 0 0 0 0 0 0 0 0 0 0 0 0 0 0 0 0 0 0 0 0 0 0 0 0 0 0 0 0
0 0 0 0 0 0 0 0 0 -1 0 0 0 0 0 0 0 0 0 0 0 0 0 0 0 0 0 0 0 0 0 0 0 0 0 0 0 0 0 0 0 0 0 0
0 0 0 0 0 0 0 0 0 0 0 0 0 0 0 0 0 0 0 0 0 0 0 0 0 0 0 0 0 -1 0 0 0 0 0 0 0 0 0 0 0 0 0 0
0 0 0 0 0 0 0 0 0 0 0 0 0 0 0 0 0 0 0 0 0 0 -1 0 0 0 0 0 0 0 0 0 0 0 0 0 0 0 0 0 0 0 0 0
Wind_Speed
2 5 6 13 21 35 38 40 43 42 39 41 41 44 48 45 44 49 53 57 53 53 48 42 39 39 30 29 23 23 21 19 18 17 15 11 8 6 2 2 3 5 5 7
6 10 10 9 31 38 41 40 37 37 41 43 43 46 48 45 48 46 48 52 56 47 49 48 44 36 32 32 27 27 23 22 21 20 16 12 8 6 2 2 3 4 6 9
12 12 12 16 14 24 35 22 30 36 40 43 46 51 49 47 49 50 49 54 50 52 44 44 47 32 30 33 29 29 25 19 20 20 17 12 9 7 3 1 2 4 8 10
10 9 9 7 22 23 26 24 30 32 29 46 40 53 47 46 48 52 52 51 52 47 48 40 45 37 29 29 28 27 26 23 22 23 19 15 11 8 5 2 2 6 9 13
11 15 16 19 16 11 23 34 18 17 18 25 33 39 46 38 50 52 54 51 54 44 45 40 39 40 32 26 25 27 26 26 25 22 16 14 12 8 4 1 3 8 11 13
14 11 13 12 15 17 17 8 12 15 17 27 23 29 48 45 49 47 51 55 52 46 42 41 35 36 31 26 24 24 27 26 26 22 16 15 14 10 5 1 4 8 10 13
9 10 9 8 9 7 6 9 7 6 7 20 11 21 33 41 44 50 47 52 50 46 46 45 41 33 30 27 24 22 27 27 28 25 23 18 12 16 5 3 5 8 10 12
10 21 22 16 3 4 4 5 6 7 6 23 20 27 26 15 34 47 45 51 47 49 50 50 44 36 30 28 26 24 26 27 27 23 19 17 17 10 4 8 6 8 10 13
23 17 24 21 13 10 13 6 12 16 17 13 12 15 9 14 38 46 48 50 53 53 53 55 47 37 31 29 27 26 27 27 27 23 20 15 12 8 6 8 8 10 12 13
24 20 18 20 22 9 13 14 10 3 12 8 5 24 27 29 29 39 44 46 53 48 48 52 47 37 33 28 26 27 25 28 27 24 20 16 11 9 6 4 8 11 13 13
24 18 23 32 18 9 7 5 7 5 4 7 15 18 17 26 27 24 37 34 33 40 49 49 42 34 32 28 27 29 28 30 27 24 21 17 12 7 2 8 8 11 13 13
24 22 15 14 20 19 16 10 11 6 5 6 17 8 26 27 25 28 27 42 30 37 47 39 36 32 31 30 32 32 32 31 28 24 20 16 9 4 8 8 10 12 13 13
15 12 7 15 15 24 5 8 14 9 20 21 30 30 32 26 27 28 21 36 34 32 38 34 30 33 35 34 33 35 34 31 27 24 18 11 10 11 10 9 11 12 12 13
5 14 9 10 12 13 13 19 6 19 7 5 32 29 27 25 25 27 28 25 34 35 34 26 30 31 31 38 36 34 31 32 28 24 18 14 12 12 11 11 12 11 13 14
14 13 13 10 12 14 18 24 24 21 12 16 34 31 27 28 29 31 29 28 29 37 26 31 32 30 20 14 32 28 21 32 26 20 18 17 16 12 11 12 12 12 13 14
14 15 18 11 12 13 22 22 21 22 25 29 35 33 18 26 28 34 29 28 29 32 28 29 28 26 23 25 24 16 27 21 17 20 17 17 12 12 12 12 12 13 14 15
16 14 18 1 19 1 6 18 5 9 11 25 35 31 5 24 29 37 29 29 25 26 28 27 24 24 25 19 18 18 16 20 22 19 15 12 13 13 12 12 13 14 14 16
12 11 12 7 11 17 9 28 24 18 18 26 27 20 17 24 27 35 31 35 38 29 26 24 22 22 22 21 19 19 19 18 17 14 13 13 13 13 13 13 14 14 15 16
10 10 9 10 7 16 23 22 15 13 16 14 19 23 19 20 28 30 25 22 27 29 23 23 22 24 24 21 20 19 16 14 13 12 12 12 13 13 14 14 14 14 15 16
16 5 8 9 10 13 14 19 17 21 18 21 23 24 20 25 38 32 25 19 26 26 24 25 25 25 24 21 20 18 16 14 13 12 13 15 15 15 15 15 15 15 16 16
20 16 11 4 12 12 17 18 9 13 14 22 27 27 25 33 31 28 28 25 25 23 22 25 26 24 23 21 20 18 16 14 13 14 15 15 15 16 16 16 15 15 16 17
21 10 14 9 15 15 28 17 7 7 18 16 8 11 20 21 10 27 26 25 27 25 22 23 25 23 20 19 19 18 15 14 14 15 15 16 16 15 16 15 15 16 16 17
14 13 7 13 13 22 21 21 13 16 6 12 5 12 16 16 13 20 21 26 26 25 25 24 24 21 18 16 15 16 14 15 16 16 15 15 15 16 15 15 15 15 16 17
11 16 9 11 13 21 20 20 12 14 9 2 7 14 14 14 18 22 24 26 27 26 26 25 23 21 18 15 13 13 14 15 16 16 15 11 12 13 14 15 15 16 18 18
15 4 7 11 15 15 14 16 17 14 8 3 7 15 11 13 19 22 23 24 26 27 25 23 21 20 18 16 14 13 15 15 15 12 12 12 12 13 14 16 17 18 20 19
25 8 11 11 15 16 15 16 13 11 6 6 9 11 12 16 22 23 23 24 25 24 24 22 21 20 18 16 14 13 12 12 14 13 12 12 13 14 16 17 19 21 21 22
Wind_Direction
256 245 276 312 303 290 286 281 270 266 253 274 275 273 268 268 258 253 247 246 245 244 246 246 245 246 243 240 226 223 223 217 216 218 221 231 224 252 251 346 80 57 37 20
244 241 244 256 246 251 264 264 250 252 264 272 271 270 269 268 261 257 249 244 243 243 241 242 244 240 232 236 231 225 228 218 220 218 223 230 211 230 228 77 46 27 28 16
250 251 248 236 233 233 238 227 238 253 263 265 277 272 270 268 260 258 253 244 244 241 239 238 237 233 227 231 228 225 223 220 219 216 221 226 218 222 234 268 349 10 10 10
252 248 244 260 238 226 228 226 238 243 245 262 279 270 274 269 258 250 250 241 240 238 237 235 234 235 225 227 222 220 222 222 218 216 228 224 225 215 239 270 3 346 7 14
256 248 246 243 233 222 231 285 232 248 243 248 240 282 271 272 255 252 243 244 234 240 232 237 231 233 231 216 213 215 215 218 217 218 220 223 220 231 217 4 34 12 20 22
261 258 246 244 230 224 229 264 248 242 239 237 237 288 272 267 258 251 241 238 231 232 232 235 234 229 217 208 210 213 213 212 213 210 198 222 233 223 211 230 4 17 19 29
325 287 266 246 240 229 310 232 290 302 244 237 243 295 253 269 259 251 239 235 231 232 230 231 233 223 212 208 206 208 207 205 205 215 222 215 234 228 226 296 74 45 35 39
335 356 356 7 213 324 251 271 251 319 301 265 324 306 320 237 237 243 243 234 230 230 229 228 230 225 210 208 204 204 201 199 199 206 200 198 195 212 153 126 92 51 44 38
347 345 338 336 342 335 340 279 227 250 251 271 288 268 277 244 239 234 240 234 230 228 224 224 226 224 206 205 208 202 192 192 189 189 187 188 181 165 128 108 73 63 56 46
343 329 339 333 326 277 255 232 329 296 329 292 288 337 299 281 239 228 233 239 229 222 218 219 220 218 201 203 204 199 191 185 185 182 182 173 160 142 130 81 66 52 53 48
343 337 334 325 329 284 309 241 226 305 280 325 247 336 354 278 255 244 230 237 219 211 211 215 214 211 200 199 194 193 186 182 180 178 172 164 154 139 49 84 58 54 52 41
346 339 323 263 253 232 221 217 211 282 333 233 228 331 311 282 259 239 247 210 218 208 209 206 207 197 194 197 193 190 184 178 176 173 168 158 148 122 112 81 62 56 51 45
7 15 296 0 11 351 344 238 215 237 226 229 239 246 307 266 254 232 232 211 218 210 206 199 197 200 202 203 197 192 181 173 172 166 162 162 130 124 107 75 65 57 49 44
345 353 332 303 275 276 311 309 242 308 304 290 248 263 260 259 252 236 235 243 223 214 208 183 191 196 197 220 194 194 180 167 166 156 155 140 131 116 98 75 60 54 49 42
18 359 345 299 273 246 237 225 219 221 215 224 257 257 295 246 246 231 234 239 225 216 190 187 190 195 197 191 168 144 163 171 164 145 134 125 118 104 81 66 60 51 44 40
12 3 355 304 253 239 235 218 213 217 218 228 250 248 204 248 246 229 232 234 233 224 190 182 186 189 191 175 185 146 142 144 136 126 122 117 108 86 70 65 56 49 43 37
19 18 12 59 273 345 82 211 196 200 206 217 238 253 329 265 253 227 226 219 220 187 182 178 178 178 179 173 159 155 152 129 117 120 122 108 90 75 68 60 54 47 40 40
22 30 39 239 278 28 24 353 350 264 191 232 259 271 288 273 235 220 224 219 221 180 179 171 172 166 168 169 160 142 131 126 120 118 106 91 78 71 65 60 53 49 46 40
34 41 57 61 285 18 358 310 267 228 217 250 243 245 276 260 214 212 231 210 188 174 171 163 165 159 158 155 151 143 135 126 118 108 96 81 74 72 67 60 54 50 42 33
23 122 89 55 80 259 271 292 266 251 236 264 263 254 258 212 197 205 211 189 181 173 162 155 150 152 152 154 144 138 131 122 111 98 85 81 78 73 65 60 56 51 45 38
25 37 55 145 223 226 298 293 291 226 233 279 259 231 209 192 194 202 201 189 180 166 152 150 149 153 156 152 141 131 125 117 104 94 86 80 73 68 65 62 52 44 42 40
19 60 58 160 251 237 316 295 262 234 272 264 321 206 185 178 193 193 196 174 172 163 153 146 144 149 149 146 137 131 123 110 100 91 85 77 71 66 62 57 52 48 44 40
55 53 97 195 216 283 288 286 271 280 227 347 201 175 172 174 173 180 167 163 163 159 152 151 146 145 145 142 138 124 116 107 98 89 81 75 70 65 58 48 44 41 38 34
66 39 111 209 326 287 301 302 290 308 318 291 183 174 170 155 170 168 163 159 158 159 154 148 143 142 139 139 131 121 112 104 96 89 79 63 54 45 36 29 21 20 14 19
53 134 105 129 239 253 263 293 297 311 303 335 165 174 158 156 166 165 160 155 156 154 153 150 143 142 138 134 126 119 108 102 93 81 76 66 55 47 40 32 26 27 18 18
356 90 108 107 247 245 254 289 287 311 232 192 175 167 159 163 167 166 159 160 160 156 153 146 140 136 134 130 122 114 109 98 91 83 74 67 60 53 51 49 43 32 32 29